Prague, Czech Republic

1:11 PM CEST on July 26, 2016 (GMT +0200)
Ruzyne

Weather History for LKPR - January, 2013

Change the Weather History Date:

Sunday, January 6, 2013

  Actual Average Record
Temperature  
Mean Temperature 42 °F -  
Max Temperature 44 °F 34 °F 55 °F (1999)
Min Temperature 39 °F 22 °F 12 °F (2002)
Degree Days  
Heating Degree Days 24    
Moisture  
Dew Point 39 °F    
Average Humidity 88    
Maximum Humidity 100    
Minimum Humidity 78    
Precipitation  
Precipitation 0.02 in 0.03 in - ()
Sea Level Pressure  
Sea Level Pressure 30.20 in    
Wind  
Wind Speed 8 mph ()    
Max Wind Speed 17 mph    
Max Gust Speed -    
Visibility 6.2 miles    
Events Rain    
Averages and records for this station are not official NWS values.
T = Trace of Precipitation, MM = Missing Value Source: Averaged Metar Reports

Daily Weather History Graph

Daily Weather History Graph

Search for Another Location

Airport or City:

Trip Planner

Search our weather history database for the weather conditions in past years. The results will help you decide how hot, cold, wet, or windy it might be!

Date:

Astronomy

Jan. 06, 2013 Rise Set
Actual Time 8:00 AM CET 4:17 PM CET
Civil Twilight 7:23 AM CET 4:55 PM CET
Nautical Twilight 6:41 AM CET 5:36 PM CET
Astronomical Twilight 6:02 AM CET 6:15 PM CET
Moon 1:39 AM CET (1/6) 11:46 AM CET (1/6)
Length of Visible Light 9h 32m
Length of Day
8h 16m
Waning Crescent, 36% of the Moon is Illuminated
Jan 6
Waning Crescent
Jan 11
New
Jan 19
First Quarter
Jan 27
Full
Feb 3
Last Quarter

Hourly Weather History & Observations

Time (CET) Temp. Windchill Dew Point Humidity Pressure Visibility Wind Dir Wind Speed Gust Speed Precip Events Conditions
12:00 AM 41.0 °F 36.4 °F 39.2 °F 93% 30.30 in 6.2 mi WNW 6.9 mph - N/A   Overcast
12:30 AM 41.0 °F 36.4 °F 39.2 °F 93% 30.30 in 6.2 mi WNW 6.9 mph - N/A   Overcast
1:00 AM 40 °F - 39 °F 94% 30.35 in 7 mi NW 4.5 mph - -   Overcast
1:00 AM 39.2 °F 35.9 °F 39.2 °F 100% 30.30 in 6.2 mi WNW 4.6 mph - N/A   Overcast
1:10 AM 39.2 °F 37.0 °F 39.2 °F 100% 30.30 in 6.2 mi West 3.5 mph - N/A   Overcast
1:30 AM 41.0 °F 38.0 °F 39.2 °F 93% 30.30 in 6.2 mi West 4.6 mph - N/A   Overcast
1:51 AM 41.0 °F 38.0 °F 39.2 °F 93% 30.30 in 6.2 mi West 4.6 mph - N/A Rain Light Rain
2:00 AM 41.0 °F 38.0 °F 39.2 °F 93% 30.30 in 6.2 mi West 4.6 mph - N/A Rain Light Rain
2:30 AM 41.0 °F 38.0 °F 39.2 °F 93% 30.30 in 6.2 mi WNW 4.6 mph - N/A Rain Light Rain
2:42 AM 41.0 °F 39.0 °F 39.2 °F 93% 30.30 in 6.2 mi NW 3.5 mph - N/A Rain Light Rain
3:00 AM 41.0 °F 38.0 °F 39.2 °F 93% 30.30 in 6.2 mi WNW 4.6 mph - N/A Rain Light Rain
3:30 AM 41.0 °F 36.4 °F 39.2 °F 93% 30.30 in 6.2 mi WNW 6.9 mph - N/A Rain Light Rain
4:00 AM 41.0 °F 38.0 °F 39.2 °F 93% 30.30 in 6.2 mi WNW 4.6 mph - N/A Rain Light Rain
4:30 AM 41.0 °F 38.0 °F 39.2 °F 93% 30.27 in 3.7 mi WNW 4.6 mph - N/A Rain Light Rain
5:00 AM 41.0 °F 38.0 °F 39.2 °F 93% 30.27 in 3.7 mi NW 4.6 mph - N/A Rain Light Rain
5:30 AM 41.0 °F - 39.2 °F 93% 30.27 in 6.2 mi WNW 2.3 mph - N/A   Overcast
6:00 AM 41.0 °F 39.0 °F 39.2 °F 93% 30.24 in 6.2 mi WSW 3.5 mph - N/A   Light Drizzle
6:30 AM 41.0 °F 36.4 °F 39.2 °F 93% 30.24 in 6.2 mi SW 6.9 mph - N/A Rain Light Rain
7:00 AM 41 °F - 40 °F 95% 30.28 in 12 mi West 11.2 mph - - Rain Light Rain
7:00 AM 41.0 °F 35.8 °F 41.0 °F 100% 30.24 in 6.2 mi West 8.1 mph - N/A   Overcast
7:30 AM 41.0 °F 34.3 °F 39.2 °F 93% 30.24 in 6.2 mi West 11.5 mph - N/A Rain Light Rain
8:00 AM 41.0 °F 37.1 °F 39.2 °F 93% 30.24 in 5.0 mi West 5.8 mph - N/A Rain Light Rain
8:30 AM 41.0 °F 37.1 °F 39.2 °F 93% 30.21 in 6.2 mi West 5.8 mph - N/A   Overcast
9:30 AM 41.0 °F 34.3 °F 39.2 °F 93% 30.21 in 6.2 mi West 11.5 mph - N/A   Overcast
10:00 AM 42.8 °F 37.0 °F 39.2 °F 87% 30.21 in 6.2 mi West 10.4 mph - N/A   Overcast
10:30 AM 42.8 °F 35.4 °F 39.2 °F 87% 30.21 in 6.2 mi West 15.0 mph - N/A   Overcast
11:00 AM 42.8 °F 35.8 °F 39.2 °F 87% 30.18 in 6.2 mi West 13.8 mph - N/A   Mostly Cloudy
11:30 AM 42.8 °F 35.8 °F 39.2 °F 87% 30.18 in 6.2 mi West 13.8 mph - N/A   Mostly Cloudy
12:00 PM 42.8 °F 37.0 °F 39.2 °F 87% 30.18 in 6.2 mi WSW 10.4 mph - N/A   Mostly Cloudy
12:30 PM 42.8 °F 36.2 °F 39.2 °F 87% 30.15 in 6.2 mi WSW 12.7 mph - N/A   Overcast
1:00 PM 42 °F - 38 °F 82% 30.19 in 31 mi West 13.4 mph - -   Partly Cloudy
1:00 PM 42.8 °F 35.4 °F 39.2 °F 87% 30.15 in 6.2 mi West 15.0 mph - N/A   Overcast
1:15 PM 42.8 °F 35.1 °F 37.4 °F 81% 30.12 in 6.2 mi West 16.1 mph - N/A Rain Light Rain
1:30 PM 42.8 °F 35.4 °F 37.4 °F 81% 30.12 in 6.2 mi West 15.0 mph - N/A Rain Light Rain
2:00 PM 42.8 °F 36.2 °F 37.4 °F 81% 30.12 in 6.2 mi West 12.7 mph - N/A   Overcast
2:30 PM 42.8 °F 36.2 °F 37.4 °F 81% 30.12 in 6.2 mi West 12.7 mph - N/A   Overcast
3:00 PM 42.8 °F 35.1 °F 37.4 °F 81% 30.12 in 6.2 mi West 16.1 mph - N/A Rain Light Rain
3:30 PM 42.8 °F 35.4 °F 37.4 °F 81% 30.09 in 6.2 mi West 15.0 mph - N/A Rain Light Rain
4:00 PM 42.8 °F 34.8 °F 37.4 °F 81% 30.12 in 6.2 mi West 17.3 mph - N/A   Overcast
4:08 PM 42.8 °F 35.1 °F 37.4 °F 81% 30.09 in 6.2 mi West 16.1 mph - N/A Rain Light Rain
4:30 PM 42.8 °F 35.1 °F 37.4 °F 81% 30.09 in 6.2 mi West 16.1 mph - N/A Rain Light Rain
5:00 PM 42.8 °F 35.1 °F 37.4 °F 81% 30.09 in 6.2 mi West 16.1 mph - N/A   Overcast
5:30 PM 42.8 °F 34.8 °F 37.4 °F 81% 30.12 in 6.2 mi West 17.3 mph - N/A   Overcast
6:00 PM 42.8 °F 35.1 °F 37.4 °F 81% 30.12 in 6.2 mi WNW 16.1 mph - N/A Rain Light Rain
6:30 PM 42.8 °F 35.4 °F 37.4 °F 81% 30.12 in 6.2 mi WNW 15.0 mph - N/A   Overcast
7:00 PM 43 °F - 38 °F 78% 30.17 in 31 mi WNW 11.2 mph - - Rain Light Rain
7:00 PM 42.8 °F 36.2 °F 37.4 °F 81% 30.12 in 6.2 mi WNW 12.7 mph - N/A Rain Light Rain
7:30 PM 42.8 °F 37.0 °F 39.2 °F 87% 30.12 in 6.2 mi WNW 10.4 mph - N/A Rain Light Rain
8:00 PM 42.8 °F 36.6 °F 39.2 °F 87% 30.12 in 6.2 mi WNW 11.5 mph - N/A   Overcast
8:30 PM 42.8 °F 36.6 °F 39.2 °F 87% 30.12 in 6.2 mi WNW 11.5 mph - N/A   Overcast
9:00 PM 42.8 °F 35.4 °F 39.2 °F 87% 30.15 in 6.2 mi WNW 15.0 mph - N/A   Overcast
9:30 PM 44.6 °F 37.8 °F 39.2 °F 81% 30.15 in 6.2 mi NW 15.0 mph - N/A   Overcast
10:00 PM 44.6 °F 38.8 °F 39.2 °F 81% 30.15 in 6.2 mi WNW 11.5 mph - N/A   Overcast
10:30 PM 44.6 °F 38.8 °F 39.2 °F 81% 30.15 in 6.2 mi WNW 11.5 mph - N/A   Overcast
11:00 PM 42.8 °F 36.6 °F 41.0 °F 93% 30.15 in 6.2 mi WNW 11.5 mph - N/A Rain Light Rain
11:30 PM 42.8 °F 37.5 °F 41.0 °F 93% 30.15 in 6.2 mi WNW 9.2 mph - N/A   Overcast